This demonstration page uses our WeatherBlox Daily Observations layout. Learn more.

38.88101, -77.10428

Hourly Observations for January 24, 2016

Temp ( °F °C ) Dew Point ( °F °C ) Humidity (%) Winds ( mph kmh ) Pressure ( in mb ) Visibility ( mi km ) Precip ( " mm )
12:30 am 00:30 Cloudy 30 -1 21 -6 69 69 NNW 10 17 29.83 1010 9 14.484096 0 0
12:52 am 00:52 Cloudy 30 -1 21 -6 69 69 NNW 14 22 29.85 1011 10 16.09344 0.001 0.001
1:52 am 01:52 Cloudy 30 -1 18 -8 59 59 NNW 12 19 29.88 1012 10 16.09344 0 0
2:52 am 02:52 Mostly Cloudy 28 -2 14 -10 55 55 NNW 13 20 29.91 1013 10 16.09344 0 0
3:52 am 03:52 Mostly Clear 25 -4 12 -11 59 59 NNW 12 19 29.91 1013 10 16.09344 0 0
4:52 am 04:52 Clear 23 -5 12 -11 63 63 NNW 14 22 29.94 1014 10 16.09344 0 0
5:52 am 05:52 Clear 23 -5 10 -12 58 58 NNW 14 22 29.97 1015 10 16.09344 0 0
6:52 am 06:52 Clear 21 -6 10 -12 63 63 NNW 10 17 30.03 1017 10 16.09344 0 0
7:52 am 07:52 Sunny 25 -4 9 -13 50 50 N 6 9 30.06 1018 10 16.09344 0.001 0.001
8:52 am 08:52 Sunny 25 -4 9 -13 50 50 NNW 14 22 30.09 1019 10 16.09344 0 0
9:52 am 09:52 Mostly Sunny 27 -3 10 -12 50 50 NNW 16 26 30.12 1020 10 16.09344 0 0
10:52 am 10:52 Mostly Sunny 28 -2 12 -11 51 51 NNW 15 24 30.12 1020 10 16.09344 0 0
11:52 am 11:52 Mostly Sunny 30 -1 12 -11 47 47 N 12 19 30.12 1020 10 16.09344 0 0
12:52 pm 12:52 Mostly Sunny 32 0 12 -11 44 44 NW 15 24 30.12 1020 10 16.09344 0 0
1:52 pm 13:52 Mostly Sunny 34 1 12 -11 41 41 NW 13 20 30.09 1019 10 16.09344 0 0
2:52 pm 14:52 Partly Cloudy 34 1 12 -11 41 41 NNW 10 17 30.09 1019 10 16.09344 0 0
3:52 pm 15:52 Mostly Sunny 34 1 14 -10 44 44 NNW 8 13 30.12 1020 10 16.09344 0 0
4:52 pm 16:52 Mostly Sunny 34 1 12 -11 41 41 NNW 3 6 30.12 1020 10 16.09344 0 0
5:52 pm 17:52 Mostly Clear 34 1 12 -11 41 41 Calm 30.12 1020 10 16.09344 0 0
6:52 pm 18:52 Mostly Clear 27 -3 21 -6 80 80 SSW 3 6 30.15 1021 10 16.09344 0 0
7:52 pm 19:52 Mostly Clear 27 -3 18 -8 69 69 SSW 3 6 30.15 1021 10 16.09344 0 0
8:52 pm 20:52 Mostly Clear 25 -4 18 -8 74 74 Calm 30.18 1022 8 12.874752 0 0
9:52 pm 21:52 Partly Cloudy 23 -5 18 -8 80 80 SW 5 7 30.18 1022 7 11.265408 0 0
10:52 pm 22:52 Mostly Clear with Mist and Fog 21 -6 18 -8 86 86 SSW 3 6 30.18 1022 6 9.656064 0 0
11:52 pm 23:52 Hazy 23 -5 18 -8 80 80 SSW 6 9 30.18 1022 7 11.265408 0 0

Powered by AerisWeather